GW2746 Weather Reports


Display with metric or nautical units.
time (UTC)temp
F
wind
direction
speed
MPH
gust
MPH
rain 1hr
in
rain 24hr
in
rain mn
in
humidity
%
barometer
mb
20260506080126 45 9 0.0 1.0 0.00 0.00 0.00 49 1017.2
20260506073127 46 14 0.0 2.0 0.00 0.00 0.00 49 1016.9
20260506072631 46 14 0.0 1.0 0.00 0.00 0.00 48 1016.9
20260506072145 46 23 0.0 1.0 0.00 0.00 0.00 48 1016.9
20260506071648 46 23 0.0 3.0 0.00 0.00 0.00 47 1016.8
20260506071129 46 23 1.0 3.0 0.00 0.00 0.00 47 1016.9
20260506070634 46 29 1.0 2.0 0.00 0.00 0.00 46 1016.8
20260506070133 46 35 0.0 3.0 0.00 0.02 0.00 46 1016.9
20260506062117 47 48 1.0 4.0 0.00 0.02 0.00 45 1016.8
20260506061621 47 33 0.0 4.0 0.00 0.02 0.00 45 1016.8
20260506061123 47 90 2.0 4.0 0.00 0.02 0.00 45 1016.8
20260506060635 47 25 1.0 4.0 0.00 0.02 0.00 45 1016.8
20260506060133 47 80 2.0 4.0 0.00 0.02 0.00 45 1016.7
20260506051117 49 48 2.0 8.0 0.00 0.02 0.00 42 1016.2
20260506050646 49 56 1.0 4.0 0.00 0.02 0.00 42 1016.2
20260506050144 49 343 2.0 4.0 0.00 0.03 0.00 42 1016.2
20260506045117 49 9 1.0 5.0 0.00 0.03 0.02 42 1016.1
20260506044621 49 25 3.0 5.0 0.00 0.03 0.02 42 1015.9
20260506044122 49 306 2.0 5.0 0.00 0.03 0.02 42 1016.0
20260506043630 49 31 1.0 5.0 0.00 0.03 0.02 42 1016.0
20260506043132 49 2 1.0 5.0 0.00 0.03 0.02 42 1016.0
20260506042625 49 33 1.0 5.0 0.00 0.03 0.02 42 1015.9
20260506042125 49 29 2.0 5.0 0.00 0.03 0.02 42 1015.8
20260506041629 50 332 0.0 3.0 0.00 0.03 0.02 42 1015.7
20260506041126 50 339 0.0 3.0 0.00 0.03 0.02 42 1015.7
20260506040633 50 49 1.0 4.0 0.00 0.03 0.02 42 1015.7
20260506040141 50 23 1.0 5.0 0.00 0.03 0.02 42 1015.6
20260506035622 50 9 3.0 5.0 0.00 0.03 0.02 41 1015.7
20260506035120 50 352 0.0 4.0 0.00 0.03 0.02 42 1015.8
20260506034625 50 54 0.0 2.0 0.00 0.03 0.02 42 1015.7
20260506034123 50 58 0.0 3.0 0.00 0.03 0.02 42 1015.6
20260506033631 50 43 0.0 3.0 0.00 0.03 0.02 41 1015.6
20260506033129 50 29 1.0 4.0 0.00 0.03 0.02 42 1015.6
20260506032636 50 334 1.0 4.0 0.00 0.03 0.02 42 1015.5
20260506032135 50 35 0.0 3.0 0.00 0.03 0.02 41 1015.4
20260506031624 51 73 0.0 6.0 0.00 0.03 0.02 41 1015.3
20260506031123 51 344 2.0 6.0 0.00 0.03 0.02 41 1015.2
20260506030625 51 5 2.0 5.0 0.00 0.03 0.02 40 1015.1
20260506030122 51 348 0.0 6.0 0.00 0.03 0.02 41 1015.1
20260506025627 51 36 1.0 6.0 0.00 0.03 0.02 41 1015.0
20260506025125 51 339 1.0 4.0 0.00 0.03 0.02 41 1015.0
20260506024620 51 25 2.0 4.0 0.00 0.03 0.02 41 1014.9
20260506024117 51 19 1.0 4.0 0.00 0.03 0.02 40 1014.9
20260506023617 51 25 1.0 3.0 0.00 0.03 0.02 41 1014.8
20260506023133 51 29 0.0 4.0 0.00 0.03 0.02 41 1014.8
20260506022657 51 57 3.0 7.0 0.00 0.03 0.02 40 1014.7
20260506022117 52 77 1.0 7.0 0.00 0.03 0.02 40 1014.6
20260506021624 52 44 2.0 6.0 0.00 0.03 0.02 40 1014.5
20260506021124 52 357 3.0 6.0 0.00 0.03 0.02 39 1014.5
20260506020627 52 241 1.0 3.0 0.00 0.03 0.02 40 1014.5
20260506020127 52 310 1.0 7.0 0.00 0.03 0.02 40 1014.4
20260506015631 52 310 1.0 7.0 0.00 0.03 0.02 40 1014.3
20260506015127 52 27 2.0 4.0 0.00 0.03 0.02 40 1014.3
20260506014651 52 77 2.0 7.0 0.00 0.03 0.02 40 1014.2
20260506014131 52 19 3.0 7.0 0.00 0.03 0.02 40 1014.1
20260506013657 52 359 2.0 6.0 0.00 0.03 0.02 39 1014.0
20260506013115 53 19 1.0 6.0 0.00 0.03 0.02 40 1013.9
20260506012623 53 287 1.0 7.0 0.00 0.03 0.02 40 1014.0
20260506012121 53 304 2.0 7.0 0.00 0.03 0.02 40 1013.9
20260506011645 53 350 1.0 7.0 0.00 0.03 0.02 40 1013.9
20260506011121 53 54 3.0 6.0 0.00 0.03 0.02 40 1013.7
20260506010625 53 281 3.0 6.0 0.00 0.03 0.02 39 1013.7
20260506010123 53 29 3.0 7.0 0.00 0.03 0.02 39 1013.7
20260506005627 53 39 2.0 7.0 0.00 0.03 0.02 39 1013.7
20260506005122 53 357 2.0 7.0 0.00 0.03 0.02 40 1013.7
20260506004626 53 121 2.0 7.0 0.00 0.03 0.02 39 1013.6
20260506004123 54 38 2.0 8.0 0.00 0.03 0.02 39 1013.5
20260506003625 54 176 3.0 8.0 0.00 0.03 0.02 38 1013.4
20260506003144 54 345 2.0 8.0 0.00 0.03 0.02 39 1013.4
20260506002627 54 330 2.0 11.0 0.00 0.03 0.02 38 1013.4
20260506002126 54 119 3.0 11.0 0.00 0.03 0.02 38 1013.4
20260506001614 54 339 1.0 11.0 0.00 0.03 0.02 38 1013.3
20260506001134 54 298 3.0 9.0 0.00 0.03 0.02 38 1013.4
20260506000618 54 19 2.0 6.0 0.00 0.03 0.02 37 1013.4
20260506000121 54 337 3.0 12.0 0.00 0.03 0.02 38 1013.3
20260505235644 54 33 2.0 12.0 0.00 0.03 0.02 37 1013.3
20260505235121 54 4 3.0 12.0 0.00 0.03 0.02 38 1013.2
20260505234646 55 73 4.0 12.0 0.00 0.03 0.02 37 1013.2
20260505234146 55 75 3.0 10.0 0.00 0.03 0.02 37 1013.2
20260505233630 55 78 2.0 11.0 0.00 0.03 0.02 36 1013.2
20260505233128 55 355 4.0 11.0 0.00 0.03 0.02 36 1013.1
20260505232633 55 285 2.0 14.0 0.00 0.03 0.02 37 1013.0
20260505232136 56 43 4.0 14.0 0.00 0.03 0.02 37 1013.0
20260505231624 56 52 3.0 12.0 0.00 0.03 0.02 37 1013.0
20260505231123 56 321 5.0 12.0 0.00 0.03 0.02 37 1012.9
20260505230633 56 354 4.0 14.0 0.00 0.03 0.02 36 1012.8
20260505230116 57 48 2.0 14.0 0.00 0.03 0.02 37 1012.8
20260505225623 57 93 4.0 10.0 0.00 0.03 0.02 37 1012.8
20260505225121 57 352 4.0 10.0 0.00 0.03 0.02 36 1012.8
20260505224626 57 243 3.0 8.0 0.00 0.03 0.02 36 1012.6
20260505224125 58 301 2.0 8.0 0.00 0.03 0.02 36 1012.7
20260505223629 57 9 2.0 8.0 0.00 0.03 0.02 36 1012.7
20260505223127 57 285 3.0 11.0 0.00 0.03 0.02 36 1012.8
20260505222651 57 45 3.0 8.0 0.00 0.03 0.02 36 1012.7
20260505222128 57 238 3.0 8.0 0.00 0.03 0.02 36 1012.7
20260505221635 57 223 3.0 10.0 0.00 0.03 0.02 37 1012.5
20260505221116 57 301 3.0 9.0 0.00 0.03 0.02 36 1012.6
20260505220625 57 318 3.0 9.0 0.00 0.03 0.02 36 1012.6
20260505220125 57 350 3.0 9.0 0.00 0.03 0.02 36 1012.5
20260505215631 57 343 2.0 9.0 0.00 0.03 0.02 37 1012.5
20260505215149 58 331 4.0 8.0 0.00 0.03 0.02 37 1012.6
20260505214616 58 343 3.0 8.0 0.00 0.03 0.02 39 1012.6
20260505214135 58 73 2.0 8.0 0.00 0.03 0.02 38 1012.5
20260505213619 57 357 2.0 6.0 0.00 0.03 0.02 37 1012.6
20260505213117 57 19 2.0 8.0 0.00 0.03 0.02 38 1012.7
20260505212620 57 73 5.0 8.0 0.00 0.03 0.02 39 1012.8
20260505212117 57 52 1.0 7.0 0.00 0.03 0.02 38 1012.8
20260505211620 57 347 3.0 7.0 0.00 0.03 0.02 38 1012.9
20260505211138 58 58 4.0 7.0 0.00 0.03 0.02 39 1012.8
20260505210621 58 271 2.0 11.0 0.00 0.03 0.02 40 1012.8
20260505210123 57 129 6.0 11.0 0.00 0.03 0.02 38 1012.9
20260505205646 58 19 4.0 11.0 0.00 0.03 0.02 37 1013.0
20260505205124 58 342 4.0 11.0 0.00 0.03 0.02 37 1012.9
20260505204631 58 259 4.0 12.0 0.00 0.03 0.02 37 1013.0
20260505204133 58 330 4.0 14.0 0.00 0.03 0.02 37 1013.1
20260505203623 59 9 3.0 14.0 0.00 0.03 0.02 37 1013.0
20260505203120 59 309 6.0 9.0 0.00 0.03 0.02 38 1013.2
20260505202624 59 290 4.0 9.0 0.00 0.03 0.02 37 1013.1
20260505202122 59 48 4.0 12.0 0.00 0.03 0.02 38 1013.1
20260505201627 58 287 4.0 14.0 0.00 0.03 0.02 37 1013.1
20260505201149 58 63 5.0 14.0 0.00 0.03 0.02 36 1013.2
20260505200655 58 301 4.0 12.0 0.00 0.03 0.02 36 1013.2
20260505200135 59 226 4.0 9.0 0.00 0.03 0.02 36 1013.0
20260505195618 59 72 3.0 9.0 0.00 0.03 0.02 37 1013.1
20260505195139 59 9 2.0 10.0 0.00 0.03 0.02 38 1013.1
20260505194625 58 65 2.0 10.0 0.00 0.03 0.02 38 1013.1
20260505194143 58 64 3.0 9.0 0.00 0.03 0.02 39 1013.2
20260505193624 58 321 2.0 11.0 0.00 0.03 0.02 39 1013.3
20260505193126 58 43 3.0 11.0 0.00 0.03 0.02 38 1013.4
20260505192630 57 79 4.0 9.0 0.00 0.03 0.02 38 1013.3
20260505192132 57 45 4.0 7.0 0.00 0.03 0.02 39 1013.3
20260505191619 57 19 3.0 8.0 0.00 0.03 0.02 37 1013.5
20260505191117 57 329 3.0 11.0 0.00 0.03 0.02 38 1013.4
20260505190627 58 2 3.0 11.0 0.00 0.03 0.02 40 1013.5
20260505190126 57 356 4.0 9.0 0.00 0.03 0.02 39 1013.5
20260505185629 57 266 3.0 13.0 0.00 0.03 0.02 38 1013.5
20260505185127 58 9 5.0 13.0 0.00 0.03 0.02 37 1013.7
20260505184631 58 104 4.0 11.0 0.00 0.03 0.02 39 1013.4
20260505184128 59 279 2.0 8.0 0.00 0.03 0.02 37 1013.5
20260505183631 58 125 2.0 10.0 0.00 0.03 0.02 37 1013.6
20260505183126 58 93 1.0 10.0 0.00 0.03 0.02 38 1013.7
20260505182630 58 360 3.0 8.0 0.00 0.03 0.02 38 1013.7
20260505182148 57 53 3.0 7.0 0.00 0.03 0.02 42 1013.7
20260505181632 57 39 3.0 7.0 0.00 0.03 0.02 39 1013.7
20260505181117 57 297 4.0 7.0 0.00 0.03 0.02 39 1013.6
20260505180624 57 344 4.0 11.0 0.00 0.03 0.02 40 1013.6
20260505180124 57 269 3.0 11.0 0.00 0.03 0.02 41 1013.7
20260505175627 56 296 4.0 10.0 0.00 0.03 0.02 42 1013.7
20260505175124 55 355 1.0 10.0 0.00 0.03 0.02 46 1013.6
20260505174632 56 249 5.0 9.0 0.00 0.03 0.02 45 1013.6
20260505174135 55 54 2.0 9.0 0.00 0.03 0.02 45 1013.7
20260505173619 55 143 2.0 8.0 0.00 0.03 0.02 46 1013.8
20260505173117 56 239 5.0 8.0 0.00 0.03 0.02 47 1013.8
20260505172622 55 9 3.0 6.0 0.00 0.03 0.02 46 1014.0
20260505172120 55 254 2.0 6.0 0.00 0.03 0.02 47 1013.9
20260505171624 55 14 2.0 6.0 0.00 0.03 0.02 49 1014.0
20260505171126 54 14 3.0 6.0 0.00 0.03 0.02 50 1014.1
20260505170633 54 46 2.0 4.0 0.00 0.03 0.02 49 1014.1
20260505170155 54 19 0.0 5.0 0.00 0.03 0.02 49 1014.1
20260505165617 53 327 2.0 5.0 0.00 0.03 0.02 50 1014.2
20260505165135 53 333 3.0 5.0 0.00 0.03 0.02 49 1014.1
20260505164622 53 35 1.0 6.0 0.00 0.03 0.02 51 1014.1
20260505164120 53 227 3.0 5.0 0.00 0.03 0.02 54 1014.2
20260505163627 53 216 1.0 5.0 0.00 0.03 0.02 54 1014.3
20260505163127 52 3 2.0 5.0 0.00 0.03 0.02 56 1014.0
20260505162630 52 300 1.0 4.0 0.00 0.03 0.02 57 1013.9
20260505162128 52 312 2.0 4.0 0.00 0.03 0.02 57 1013.8
20260505161651 51 313 1.0 6.0 0.00 0.03 0.02 58 1013.8
20260505161128 51 256 2.0 6.0 0.00 0.03 0.02 58 1013.7
20260505160631 51 273 2.0 7.0 0.00 0.03 0.02 59 1013.6
20260505160129 50 335 4.0 7.0 0.00 0.03 0.02 58 1013.8
20260505153130 49 316 3.0 7.0 0.00 0.03 0.02 66 1013.7
20260505152633 49 334 3.0 7.0 0.00 0.03 0.02 66 1013.6
20260505152127 49 9 0.0 7.0 0.00 0.03 0.02 68 1013.5
20260505151632 49 345 1.0 7.0 0.00 0.03 0.02 66 1013.4
20260505151129 49 327 2.0 6.0 0.00 0.03 0.02 66 1013.3
20260505150633 49 344 2.0 5.0 0.00 0.03 0.02 67 1013.3
20260505150136 49 304 4.0 5.0 0.00 0.03 0.02 65 1013.2
20260505140118 49 293 2.0 5.0 0.00 0.03 0.02 64 1013.1
20260505130152 49 259 1.0 3.0 0.00 0.03 0.02 68 1012.2
20260505124623 49 325 0.0 4.0 0.00 0.03 0.02 67 1011.8
20260505124121 48 19 0.0 1.0 0.00 0.03 0.02 70 1011.7
20260505123625 48 32 0.0 2.0 0.00 0.03 0.02 68 1011.6
20260505123121 48 32 0.0 2.0 0.00 0.03 0.02 70 1011.5
20260505122641 48 67 0.0 0.0 0.00 0.03 0.02 70 1011.4
20260505122119 48 67 0.0 0.0 0.00 0.03 0.02 71 1011.2
20260505121623 48 67 0.0 1.0 0.00 0.03 0.02 71 1011.2
20260505121119 47 67 0.0 1.0 0.00 0.03 0.02 68 1011.1
20260505120622 47 67 0.0 0.0 0.00 0.03 0.02 68 1011.0
20260505120141 47 67 0.0 2.0 0.00 0.03 0.02 68 1011.0
20260505115643 47 71 1.0 3.0 0.00 0.03 0.02 69 1010.7
20260505115121 47 71 0.0 3.0 0.00 0.03 0.02 69 1010.7
20260505114629 47 33 0.0 3.0 0.00 0.03 0.02 71 1010.5
20260505114129 46 44 0.0 2.0 0.00 0.03 0.02 73 1010.5
20260505113635 46 85 0.0 3.0 0.00 0.03 0.02 75 1010.5
20260505113136 46 85 0.0 3.0 0.00 0.03 0.02 76 1010.4
20260505112640 46 163 0.0 2.0 0.00 0.03 0.02 78 1010.5
20260505112121 46 167 0.0 2.0 0.00 0.03 0.02 80 1010.5
20260505111628 46 167 0.0 0.0 0.00 0.03 0.02 81 1010.6
20260505111127 46 167 0.0 0.0 0.00 0.03 0.02 82 1010.6
20260505110633 46 167 0.0 2.0 0.00 0.03 0.02 82 1010.7
20260505110133 46 167 0.0 2.0 0.00 0.03 0.02 83 1010.7
20260505102118 47 167 0.0 0.0 0.00 0.03 0.02 87 1010.9
20260505101623 47 167 0.0 0.0 0.00 0.03 0.02 87 1010.8
20260505101122 47 167 0.0 0.0 0.00 0.03 0.02 87 1010.9
20260505100629 47 167 0.0 0.0 0.00 0.03 0.02 87 1010.9
20260505100132 47 167 0.0 0.0 0.00 0.03 0.02 87 1010.9
20260505095634 47 167 0.0 0.0 0.00 0.03 0.02 87 1010.8
20260505095131 47 167 0.0 0.0 0.00 0.03 0.02 87 1010.8
20260505094636 47 167 0.0 0.0 0.00 0.03 0.02 87 1010.7
20260505094134 47 167 0.0 1.0 0.00 0.03 0.02 87 1010.6
20260505093623 47 167 0.0 2.0 0.00 0.03 0.02 86 1010.5
20260505093121 47 167 0.0 2.0 0.00 0.03 0.02 86 1011.4
20260505092628 47 167 0.0 1.0 0.00 0.03 0.02 86 1011.3
20260505092126 47 167 0.0 2.0 0.00 0.03 0.02 87 1011.0
20260505091627 47 167 0.0 2.0 0.00 0.03 0.02 87 1011.1
20260505091124 47 167 0.0 0.0 0.00 0.03 0.02 88 1011.0
20260505090627 48 167 0.0 1.0 0.00 0.03 0.02 88 1011.0
20260505090149 48 167 0.0 2.0 0.00 0.03 0.02 88 1010.9
20260505085633 48 167 0.0 2.0 0.00 0.03 0.02 88 1010.8
20260505085129 48 167 0.0 1.0 0.00 0.03 0.02 88 1010.8
20260505084633 48 167 0.0 1.0 0.00 0.03 0.02 89 1010.8
20260505084130 48 167 0.0 4.0 0.00 0.03 0.02 89 1010.9
20260505083634 48 167 1.0 4.0 0.00 0.03 0.02 89 1010.8
20260505083132 48 167 1.0 2.0 0.00 0.03 0.02 89 1010.7
20260505082635 48 167 0.0 1.0 0.00 0.03 0.02 90 1010.5
20260505082153 48 167 0.0 1.0 0.00 0.03 0.02 90 1010.5
20260505081634 48 167 0.0 1.0 0.00 0.03 0.02 90 1010.3
20260505081135 48 167 0.0 1.0 0.00 0.03 0.02 90 1010.3
20260505080639 48 167 0.0 1.0 0.00 0.03 0.02 89 1010.1